RH
30 30 33 35 33 32 35 37 37 40 45 52 64 75 80 81 92 98 99 84 83 79 82 84 82 86 73 34 34 39 40 40 36 30 23 25 20 17 26 25 26 32 24
24 26 28 32 35 35 37 38 37 41 47 56 64 75 81 86 92 100 98 90 85 88 90 89 86 85 41 35 39 41 42 42 37 26 25 29 27 30 20 31 24 20 25
22 20 21 24 30 35 35 39 39 41 50 56 72 86 87 94 100 100 100 100 83 96 95 92 88 68 35 38 42 43 44 41 37 25 18 24 27 24 22 22 29 20 29
22 22 21 20 21 27 35 39 41 46 55 55 71 72 53 74 91 100 100 98 95 99 97 92 86 38 39 41 43 45 45 41 33 24 19 16 16 27 26 26 28 28 27
19 20 22 25 23 22 33 42 46 55 64 58 76 66 70 76 82 99 100 100 100 100 96 90 53 38 41 43 45 46 46 41 28 21 17 22 25 30 33 37 31 28 30
19 20 23 24 26 28 31 43 54 65 77 75 55 56 82 77 80 100 98 100 99 99 97 69 39 41 43 44 46 47 45 37 26 19 18 19 23 26 32 32 31 34 31
20 20 20 24 29 30 33 50 65 73 75 54 67 76 94 79 86 99 98 98 98 97 68 44 42 42 44 46 47 47 41 31 22 19 20 20 22 25 32 39 40 43 33
20 26 27 26 36 38 39 52 71 75 67 64 82 91 96 86 96 100 99 99 96 88 57 42 42 44 46 47 48 44 35 25 21 21 22 22 22 26 34 43 49 53 49
23 28 29 33 30 43 48 62 74 75 71 82 88 96 91 94 100 100 98 96 89 65 50 44 43 46 47 48 46 40 29 23 23 24 24 25 27 30 33 38 48 59 61
28 32 37 42 31 43 54 65 73 77 78 87 92 91 92 99 100 94 92 90 63 50 45 44 45 47 48 48 43 32 25 24 26 27 27 28 29 30 31 42 53 56 61
34 39 47 52 39 46 62 70 75 80 84 84 79 84 95 100 99 91 88 76 60 44 44 45 47 48 48 44 35 27 26 27 28 30 32 29 28 31 39 44 50 57 61
30 52 61 58 52 61 75 78 80 81 82 74 74 89 91 98 95 84 81 68 50 47 45 47 48 48 45 38 30 28 28 30 32 33 31 29 38 41 44 53 59 63 67
33 59 65 68 69 80 84 82 80 76 74 72 80 92 90 91 81 82 69 52 45 46 47 48 48 46 40 32 29 30 32 33 34 34 34 37 43 50 56 62 68 74 80
47 66 72 70 73 82 82 78 74 72 72 78 87 84 79 82 86 63 49 45 47 47 49 49 46 42 35 30 30 33 34 34 36 42 46 48 50 57 66 71 80 87 84
54 72 76 74 76 79 77 70 68 68 76 82 82 79 77 72 62 51 45 47 48 50 50 48 43 36 31 31 34 35 33 30 35 37 44 53 60 62 80 91 91 92 90
73 75 77 77 80 73 67 65 67 73 80 83 81 72 67 58 50 46 49 48 50 51 49 46 38 31 32 35 35 34 28 20 22 43 42 52 64 69 77 88 90 90 93
83 78 77 79 68 69 72 64 70 80 83 80 64 58 54 47 47 48 50 52 52 50 48 38 31 33 35 35 35 29 18 14 28 44 59 69 71 78 83 86 87 89 91
83 76 76 70 68 71 68 67 78 78 71 55 57 56 54 48 49 57 53 52 51 47 37 31 33 35 37 36 28 16 14 19 41 65 69 76 78 82 84 88 91 84 86
75 72 67 65 68 75 73 68 60 56 55 56 61 61 56 60 52 52 52 50 45 38 31 33 34 37 37 28 16 14 14 29 60 66 71 74 81 80 86 92 88 91 91
75 74 68 69 82 66 62 65 66 75 77 72 56 52 50 51 52 51 49 47 47 30 32 33 37 38 26 19 15 15 18 55 71 73 76 78 78 85 91 94 97 95 90
93 90 88 85 87 92 89 80 70 52 48 48 50 50 51 52 50 58 72 34 30 30 33 39 37 27 24 24 27 28 32 73 90 87 86 82 88 92 93 93 93 94 95
59 55 52 50 49 48 48 47 46 48 49 50 51 51 52 66 74 44 30 28 29 34 41 36 26 33 48 53 60 48 78 95 94 91 89 88 94 92 94 95 96 98 100
68 61 58 53 51 52 58 59 54 49 49 51 57 69 66 50 39 28 27 29 35 41 30 27 39 44 47 52 65 76 89 92 91 92 92 93 94 94 92 90 97 98 97
74 70 64 61 56 49 45 46 49 50 65 63 55 52 50 34 26 26 28 38 41 24 22 31 35 28 37 59 68 63 85 92 91 90 92 98 93 85 86 88 88 93 97
60 54 52 47 45 46 47 49 52 52 52 54 54 46 30 25 25 30 42 35 20 18 18 17 16 23 34 53 84 97 95 96 97 99 86 83 82 85 89 89 90 90 94
58 54 49 47 46 47 49 49 50 53 57 57 40 27 24 27 37 44 26 18 19 18 15 15 20 28 39 66 89 100 100 100 100 93 90 88 91 94 92 94 91 91 94
Wind_Speed
28 28 27 28 32 35 34 31 28 26 22 23 23 25 26 27 29 29 29 26 25 23 21 18 15 12 11 10 7 6 7 9 11 10 9 11 11 10 9 8 8 13 17
34 34 33 32 32 34 35 33 31 27 26 24 24 24 28 31 36 34 33 31 29 26 23 20 17 14 12 10 7 6 7 10 11 9 8 3 7 8 6 9 16 11 16
35 35 36 37 36 36 36 35 34 30 28 26 23 25 32 38 42 41 35 32 29 27 24 21 18 15 13 10 7 6 7 10 11 9 3 3 3 13 10 13 11 15 15
27 31 35 35 37 38 36 36 33 32 31 30 29 34 37 42 44 41 36 35 31 30 25 22 18 17 13 10 8 7 7 8 9 11 8 6 9 3 8 6 11 15 20
18 21 24 29 34 32 36 33 32 30 30 33 31 35 31 26 34 38 36 33 31 28 24 23 19 17 13 10 7 7 8 8 8 9 10 10 10 9 9 17 11 19 19
13 15 18 21 26 31 28 33 32 31 28 32 33 31 27 31 34 38 36 33 31 29 26 22 20 17 13 9 8 8 8 9 10 10 11 10 8 8 11 17 22 24 26
11 18 19 19 21 26 32 28 30 30 31 31 29 26 29 31 31 35 36 35 33 30 26 23 19 16 12 9 7 8 9 10 11 12 11 13 13 13 15 16 23 25 30
16 10 17 22 20 25 29 31 30 30 30 29 28 25 33 29 31 34 33 35 32 28 24 22 19 15 11 8 7 8 10 11 12 13 14 15 15 16 16 18 21 27 25
13 13 13 17 22 22 27 31 32 31 29 28 27 31 30 30 33 33 33 34 31 27 24 21 17 13 9 7 7 9 11 12 13 14 16 16 16 18 19 21 21 21 26
11 13 13 16 19 20 24 29 28 29 28 27 29 29 29 31 33 30 34 34 29 25 22 19 14 11 7 6 7 9 11 12 14 16 16 17 18 19 21 21 21 22 26
14 18 17 15 14 18 21 26 27 27 28 30 30 30 30 30 32 31 32 29 23 22 19 15 11 8 6 6 8 10 12 14 15 16 17 19 20 21 22 22 24 24 24
17 16 17 10 10 15 20 25 25 27 30 29 28 29 29 30 31 32 30 25 23 20 16 13 9 6 5 7 9 11 13 15 16 17 19 20 19 22 23 22 21 24 26
18 14 13 8 10 14 19 23 25 26 29 30 28 30 31 31 32 30 27 24 22 18 14 10 6 5 6 8 10 12 14 16 17 19 20 21 21 23 23 22 23 25 26
13 12 7 8 12 16 20 23 25 26 29 30 30 34 33 33 30 29 27 23 19 15 10 7 5 6 7 9 11 14 16 17 18 19 20 22 23 23 22 24 25 24 28
10 8 6 10 14 18 21 23 24 27 30 34 34 35 34 32 30 27 24 21 16 11 7 5 5 7 9 12 13 15 17 18 19 20 21 21 22 25 23 23 25 27 30
5 6 8 12 17 20 20 24 27 33 36 36 37 36 33 29 28 24 20 16 12 8 5 4 6 8 11 13 16 18 19 20 20 21 22 22 22 20 20 22 23 25 30
8 10 12 15 17 22 26 29 34 37 36 37 37 33 29 27 24 20 16 12 8 5 3 5 7 10 13 15 18 20 21 22 20 22 22 21 20 21 22 23 24 26 30
14 14 15 17 21 25 30 34 36 36 36 34 31 28 26 23 20 15 12 9 6 4 4 6 9 12 15 17 19 21 22 21 20 19 20 21 22 22 23 27 31 34 33
15 16 17 21 24 28 33 36 37 36 33 31 27 24 21 18 16 13 10 6 4 3 6 8 11 14 15 20 19 21 22 20 18 18 20 21 23 23 23 28 34 34 34
17 22 24 23 27 33 34 36 34 30 27 25 25 23 19 15 13 10 7 3 3 5 7 10 13 16 17 18 21 22 21 19 18 19 20 20 21 22 25 29 33 37 36
24 26 25 27 28 28 28 29 27 25 25 24 22 19 16 12 10 6 3 3 3 6 10 12 13 15 17 19 21 20 19 18 19 22 23 24 22 25 27 29 32 33 29
22 22 27 26 24 24 27 27 26 25 22 19 17 14 12 8 6 5 2 2 5 9 11 13 14 14 14 16 17 21 17 17 22 24 26 28 27 29 29 29 25 24 26
21 23 26 28 25 24 21 23 23 21 19 17 14 11 10 7 4 1 2 6 9 11 12 13 13 14 17 17 15 15 18 20 22 25 26 28 29 27 26 22 22 21 20
21 23 26 27 25 21 20 19 20 19 16 15 13 11 7 4 1 2 5 8 9 10 11 13 16 19 19 16 16 23 23 22 24 26 30 30 24 20 20 20 20 20 20
23 23 23 25 26 23 22 22 20 18 15 13 10 7 4 2 2 4 7 9 11 13 16 17 19 19 20 19 21 22 23 24 26 27 29 22 20 21 21 20 20 21 23
24 24 26 28 27 24 23 21 17 13 11 9 7 5 2 1 4 6 9 11 13 15 16 16 17 19 19 20 21 21 22 22 23 23 19 19 20 21 21 22 24 25 26
Wind_Direction
248 244 240 236 235 233 231 228 225 220 214 210 206 206 205 211 212 209 201 209 209 213 212 211 223 222 215 220 237 274 304 319 327 333 330 317 320 307 286 274 282 286 296
248 245 241 237 234 231 230 228 222 218 214 208 209 204 206 207 211 205 217 206 209 212 211 215 223 221 211 217 238 271 300 314 331 345 351 315 281 315 300 269 279 282 284
249 246 242 238 235 232 228 226 223 220 214 209 199 191 203 209 209 212 215 203 211 207 209 216 222 214 210 219 238 271 302 318 326 341 348 317 288 292 294 278 277 290 285
246 248 247 243 237 233 228 223 222 215 213 212 204 209 222 216 217 220 209 204 205 201 205 211 219 213 210 220 241 274 298 314 318 330 326 294 273 296 303 259 297 288 289
249 251 246 244 242 237 226 221 217 212 209 211 200 215 214 215 217 208 200 201 197 196 203 206 206 209 211 226 249 277 296 309 312 315 315 310 311 294 270 295 292 284 291
262 269 260 250 243 236 230 217 209 207 201 202 213 215 201 212 210 202 197 196 194 197 200 204 200 204 214 231 257 282 300 311 313 312 311 303 295 273 280 284 290 295 303
271 284 273 258 244 231 225 213 206 203 200 208 202 199 199 214 208 205 201 200 195 195 193 197 199 204 217 237 264 287 306 314 315 312 303 300 299 292 288 288 291 294 299
263 261 291 266 246 229 217 210 202 200 201 200 194 183 203 205 201 203 198 193 194 195 195 192 200 206 220 243 272 297 309 313 311 308 304 302 300 295 291 289 293 300 297
254 280 298 284 247 233 215 206 200 195 196 187 178 190 201 198 193 192 194 191 190 191 191 195 198 207 224 250 285 301 309 311 307 303 304 305 302 297 295 294 292 290 296
273 301 312 299 248 231 212 202 196 188 183 172 177 187 190 194 192 193 189 189 185 186 188 189 197 210 231 264 289 302 304 305 303 303 301 298 298 295 295 295 289 285 283
295 310 318 305 248 219 201 191 185 175 168 170 185 185 187 187 190 186 184 183 181 184 183 189 200 216 244 278 296 299 302 304 303 300 299 299 299 299 296 293 292 288 287
303 307 312 299 229 201 186 175 172 166 164 169 179 182 180 184 183 177 183 177 184 184 183 193 205 226 262 287 296 301 303 302 300 298 297 298 297 294 298 298 292 289 290
300 311 307 263 193 180 172 164 162 159 162 174 173 172 175 177 174 178 175 178 178 182 184 194 213 248 277 291 297 299 301 301 299 299 297 296 295 297 298 292 294 295 296
303 304 286 234 179 170 165 157 156 160 163 165 164 164 169 173 173 169 172 173 177 178 185 199 233 270 288 295 298 303 306 305 301 299 298 298 298 298 296 291 295 298 297
281 279 238 201 169 162 158 154 152 154 159 160 159 163 167 168 166 166 165 169 172 178 189 218 261 284 293 299 305 308 306 302 300 299 299 299 294 292 297 297 299 300 299
252 227 198 180 157 155 153 157 154 155 160 159 159 162 163 162 162 161 163 168 168 177 202 249 279 292 296 305 308 308 309 308 305 300 299 297 298 298 292 295 296 298 300
193 188 176 166 158 165 167 160 155 159 160 160 157 157 157 156 156 157 161 165 172 188 234 270 291 299 304 310 311 314 314 312 308 301 301 298 296 296 298 299 301 295 299
157 159 158 157 166 164 162 158 159 156 155 152 152 151 154 154 153 158 164 167 180 211 264 290 298 305 306 312 315 316 317 313 307 299 297 297 303 302 306 305 303 305 306
139 143 149 152 157 158 156 154 149 149 148 147 149 150 153 157 158 158 164 172 186 254 281 298 306 308 311 312 317 317 317 314 305 299 298 302 302 304 304 305 304 307 306
142 139 138 142 147 147 150 148 142 145 144 142 147 150 149 150 153 158 157 167 252 279 302 309 312 312 313 311 317 317 319 313 308 305 299 304 303 303 306 305 307 307 306
120 124 125 131 135 138 139 132 132 133 141 143 143 144 146 147 146 153 191 219 282 308 314 316 315 312 311 312 315 319 319 314 309 311 310 305 303 305 307 306 300 301 307
113 117 117 118 125 133 142 135 135 135 140 141 140 139 140 150 167 176 201 299 318 321 317 315 315 315 312 309 312 317 321 322 314 308 306 307 309 310 306 303 305 305 304
123 130 129 126 129 137 143 142 137 138 137 136 138 152 159 159 168 187 331 330 324 319 317 319 316 318 314 317 315 313 316 313 311 305 308 306 307 308 306 311 311 310 314
126 134 137 139 138 141 142 137 136 137 146 157 154 153 157 151 125 345 329 319 317 320 320 317 316 315 317 315 305 310 315 316 310 313 313 309 311 309 311 316 318 315 313
135 143 146 140 136 138 140 138 143 152 154 151 148 145 139 121 332 316 319 323 319 325 324 321 319 319 317 314 313 315 315 317 314 312 309 321 316 317 319 318 319 322 325
145 146 141 140 137 141 142 143 145 147 145 143 142 141 144 294 318 326 327 326 324 325 322 321 322 322 318 313 316 318 318 313 315 313 319 315 316 314 318 321 326 331 333